Weather History for Port Angeles, WA

Change the Weather History Date:

Wednesday, December 4, 2013

  Actual Average Record
Temperature  
Mean Temperature 34 °F -  
Max Temperature 45 °F 46 °F 55 °F (1974)
Min Temperature 23 °F 36 °F 20 °F (1972)
Degree Days  
Heating Degree Days 31    
Moisture  
Dew Point 17 °F    
Average Humidity 63    
Maximum Humidity 81    
Minimum Humidity 43    
Precipitation  
Precipitation 0.00 in - - ()
Sea Level Pressure  
Sea Level Pressure 30.36 in    
Wind  
Wind Speed 5 mph (SSW)    
Max Wind Speed 9 mph    
Max Gust Speed -    
Visibility 10 miles    
Events      
Averages and records for this station are not official NWS values.
T = Trace of Precipitation, MM = Missing Value Source: NWS Daily Summary

Daily Weather History Graph

Daily Weather History Graph

Search for Another Location

Airport:

Trip Planner

Search our weather history database for the weather conditions in past years. The results will help you decide how hot, cold, wet, or windy it might be!

Date:

Astronomy

Dec. 04, 2013 Rise Set
Actual Time 7:47 AM PST 4:21 PM PST
Civil Twilight 7:11 AM PST 4:57 PM PST
Nautical Twilight 6:32 AM PST 5:36 PM PST
Astronomical Twilight 5:54 AM PST 6:14 PM PST
Moon 9:17 AM PST (12/4) 6:42 PM PST (12/4)
Length of Visible Light 9h 45m
Length of Day
8h 34m
Waxing Crescent, 5% of the Moon is Illuminated
Dec 4
Waxing Crescent
Dec 9
First Quarter
Dec 17
Full
Dec 25
Last Quarter
Jan 1
New

Hourly Weather History & Observations

Time (PST) Temp. Windchill Dew Point Humidity Pressure Visibility Wind Dir Wind Speed Gust Speed Precip Events Conditions
12:53 AM 27.0 °F 23.0 °F 19.9 °F 75% 30.35 in 10.0 mi SSE 3.5 mph - N/A   Clear
1:53 AM 28.9 °F 20.4 °F 19.0 °F 67% 30.34 in 10.0 mi SSE 9.2 mph - N/A   Clear
2:53 AM 32.0 °F 26.4 °F 18.0 °F 56% 30.35 in 10.0 mi South 5.8 mph - N/A   Clear
3:53 AM 26.1 °F - 18.0 °F 71% 30.35 in 10.0 mi North - - N/A   Clear
4:53 AM 32.0 °F - 16.0 °F 52% 30.35 in 10.0 mi North - - N/A   Clear
5:53 AM 30.0 °F - 16.0 °F 56% 30.35 in 10.0 mi North - - N/A   Clear
6:53 AM 24.1 °F - 18.0 °F 77% 30.36 in 10.0 mi North - - N/A   Clear
7:53 AM 23.0 °F - 18.0 °F 81% 30.36 in 10.0 mi North - - N/A   Clear
8:53 AM 27.0 °F - 19.0 °F 72% 30.37 in 10.0 mi North - - N/A   Clear
9:53 AM 30.9 °F - 19.0 °F 61% 30.38 in 10.0 mi North - - N/A   Clear
10:53 AM 35.1 °F - 19.9 °F 54% 30.38 in 10.0 mi North - - N/A   Clear
11:53 AM 45.0 °F - - N/A% 30.37 in - North - - N/A   Clear
12:53 PM - - - N/A% 30.36 in 10.0 mi North - - N/A   Clear
1:53 PM 36.0 °F 32.1 °F 16.0 °F 44% 30.36 in 10.0 mi Variable 4.6 mph - N/A   Clear
2:53 PM 36.0 °F - 15.1 °F 43% 30.35 in 10.0 mi Calm Calm - N/A   Clear
3:53 PM 32.0 °F - 16.0 °F 52% 30.35 in 10.0 mi Calm Calm - N/A   Clear
4:53 PM 27.0 °F 20.5 °F 19.0 °F 72% 30.36 in 10.0 mi SW 5.8 mph - N/A   Clear
5:53 PM 24.1 °F 17.0 °F 17.1 °F 75% 30.35 in 10.0 mi WSW 5.8 mph - N/A   Clear
6:53 PM 26.1 °F 17.6 °F 16.0 °F 66% 30.35 in 10.0 mi SW 8.1 mph - N/A   Clear
7:53 PM 25.0 °F - 16.0 °F 69% 30.36 in 10.0 mi North - - N/A   Clear
8:53 PM 26.1 °F - 15.1 °F 63% 30.36 in 10.0 mi North - - N/A   Clear
9:53 PM 26.1 °F - 15.1 °F 63% 30.35 in 10.0 mi North - - N/A   Clear
10:53 PM 26.1 °F - 15.1 °F 63% 30.35 in 10.0 mi North - - N/A   Clear
11:53 PM 26.1 °F - 15.1 °F 63% 30.34 in 10.0 mi North - - N/A   Clear